Location: ??????
(42.0089°N, 44.3281°E)
Time: 12:11:02
(UTC+00:00)

NOSS 8 (H) - Pass Details

Date: 05 June 2022
Orbit: 366 x 1779 km, 63.3° (Epoch: 28 June)

Event Time Altitude Azimuth Distance (km) Brightness Sun altitude
Rises 17:33:42 0° 322° (NW) 2,552 10.3 -9.6°
Reaches altitude 10° 17:35:33 10° 320° (NW) 1,790 9.0 -9.8°
Maximum altitude 17:39:29 72° 236° (SW) 699 5.4 -10.3°
Enters shadow 17:44:32 13° 154° (SSE) 2,300 7.4 -11.0°
